STARLINK-34779 (65058 NORAD) Tracking and Keplerian Element Data

This shows tracking and keplerian element data for the satellite.

Feedback or suggestion? Click here.




ElementValue
Catalog65058
NameSTARLINK-34779
Epoch Orbit2283
Epoch Day354.22524932
Epoch Year2025
RAAN68.901
Inclination97.6049
Eccentricity5.97E-05
Argument of Perigee103.1453
Mean Anonmoly256.9841
Mean Motion15.05652432
Decay Rate2.562E-05
L11 65058U 25165C 25354.22524932 .00002562 00000+0 18172-3 0 9997
L22 65058 97.6049 68.9010 0000597 103.1453 256.9841 15.05652432 22836



Live tracking and technical data element details for STARLINK-34779 (NORAD 65058). STARLINK-34779 can be tracked NOW for your location showing map with azimuth and elevation plus other details from your city location.







IsCatalogInMostPopularTable: catalog: 65058, numindb: 4
Update: records affected: 1



GetName: 65058 STARLINK-34779

Hit Count: updated at: Tue, 10 Feb 2026 03:33:49 GMT